Weather History for Shreveport Downtown, LA

Change the Weather History Date:

Thursday, July 18, 2013

  Actual Average (KSHV) Record (KSHV)
Temperature  
Mean Temperature 84 °F 83 °F  
Max Temperature 97 °F 94 °F 106 °F (1875)
Min Temperature 73 °F 73 °F 66 °F (1991)
Degree Days  
Heating Degree Days 0 0  
Month to date heating degree days 0  
Since 1 June heating degree days 0  
Since 1 July heating degree days 0  
Cooling Degree Days 20 18  
Month to date cooling degree days 319  
Year to date cooling degree days 1161  
Since 1 June cooling degree days 763  
Growing Degree Days 34 (Base 50)    
Moisture  
Dew Point 70 °F    
Average Humidity 69    
Maximum Humidity 94    
Minimum Humidity 37    
Precipitation  
Precipitation 0.30 in 0.12 in 2.83 in (1882)
Month to date precipitation 2.28  
Year to date precipitation 29.89  
Snow  
Snow 0.00 in - - ()
Month to date snowfall  
Since 1 June snowfall  
Since 1 July snowfall  
Snow Depth -    
Sea Level Pressure  
Sea Level Pressure 30.09 in    
Wind  
Wind Speed 2 mph (East)    
Max Wind Speed 14 mph    
Max Gust Speed 22 mph    
Visibility 9 miles    
Events Rain , Thunderstorm    
T = Trace of Precipitation, MM = Missing Value Source: NWS Daily Summary

Daily Weather History Graph

Daily Weather History Graph

Search for Another Location

Airport:

Trip Planner

Search our weather history database for the weather conditions in past years. The results will help you decide how hot, cold, wet, or windy it might be!

Date:

Astronomy

Jul. 18, 2013 Rise Set
Actual Time 6:20 AM CDT 8:21 PM CDT
Civil Twilight 5:52 AM CDT 8:49 PM CDT
Nautical Twilight 5:18 AM CDT 9:23 PM CDT
Astronomical Twilight 4:42 AM CDT 9:58 PM CDT
Moon 4:21 PM CDT (7/18) 2:08 AM CDT (7/18)
Length of Visible Light 14h 56m
Length of Day
14h 01m
Waxing Gibbous, 77% of the Moon is Illuminated
Jul 18
Waxing Gibbous
Jul 22
Full
Jul 29
Last Quarter
Aug 6
New
Aug 14
First Quarter

Hourly Weather History & Observations

Time (CDT) Temp. Heat Index Dew Point Humidity Pressure Visibility Wind Dir Wind Speed Gust Speed Precip Events Conditions
12:53 AM 75.9 °F - 71.1 °F 85% 30.15 in 10.0 mi Calm Calm - N/A   Clear
1:53 AM 75.0 °F - 70.0 °F 84% 30.16 in 10.0 mi Calm Calm - N/A   Clear
2:53 AM 73.9 °F - 70.0 °F 87% 30.14 in 10.0 mi Calm Calm - N/A   Clear
3:53 AM 73.9 °F - 70.0 °F 87% 30.13 in 10.0 mi Calm Calm - N/A   Clear
4:53 AM 73.9 °F - 70.0 °F 87% 30.13 in 10.0 mi Calm Calm - N/A   Clear
5:53 AM 73.9 °F - 71.1 °F 91% 30.14 in 10.0 mi Calm Calm - N/A   Clear
6:53 AM 73.9 °F - 71.1 °F 91% 30.15 in 10.0 mi Calm Calm - N/A   Clear
7:53 AM 78.1 °F - 71.1 °F 79% 30.14 in 10.0 mi Calm Calm - N/A   Clear
8:53 AM 82.0 °F 86.7 °F 72.0 °F 71% 30.16 in 10.0 mi Calm Calm - N/A   Clear
9:53 AM 88.0 °F 94.7 °F 72.0 °F 59% 30.17 in 10.0 mi North 3.5 mph - N/A   Clear
10:53 AM 90.0 °F 94.5 °F 69.1 °F 50% 30.16 in 10.0 mi Calm Calm - N/A   Clear
11:53 AM 89.1 °F 94.1 °F 70.0 °F 53% 30.14 in 10.0 mi Calm Calm - N/A   Partly Cloudy
12:53 PM 93.0 °F 97.9 °F 69.1 °F 45% 30.12 in 10.0 mi Variable 3.5 mph - N/A   Partly Cloudy
1:53 PM 93.0 °F 97.4 °F 68.0 °F 44% 30.09 in 10.0 mi NNW 3.5 mph - N/A   Clear
2:53 PM 95.0 °F 97.9 °F 66.0 °F 38% 30.05 in 10.0 mi Calm Calm - N/A   Clear
3:53 PM 91.9 °F 95.4 °F 66.9 °F 44% 30.01 in 10.0 mi East 3.5 mph - N/A   Clear
4:53 PM 96.1 °F 99.3 °F 66.0 °F 37% 29.99 in 10.0 mi ENE 3.5 mph - N/A   Clear
5:53 PM 95.0 °F 99.0 °F 66.9 °F 40% 29.99 in 10.0 mi ENE 3.5 mph - N/A   Clear
6:53 PM 90.0 °F 94.5 °F 69.1 °F 50% 29.99 in 10.0 mi ENE 3.5 mph - N/A   Clear
7:53 PM 84.0 °F 87.0 °F 68.0 °F 58% 30.03 in 10.0 mi ESE 12.7 mph 20.7 mph N/A   Mostly Cloudy
8:04 PM 84.2 °F 86.6 °F 66.2 °F 55% 30.04 in 10.0 mi ESE 12.7 mph 21.9 mph N/A Thunderstorm Scattered Clouds
8:53 PM 75.0 °F - 70.0 °F 84% 30.07 in 1.8 mi SE 10.4 mph - 0.21 in Rain , Thunderstorm Heavy Thunderstorms and Rain
9:02 PM 73.4 °F - 71.6 °F 94% 30.07 in 3.0 mi South 13.8 mph - 0.03 in Rain , Thunderstorm Light Thunderstorms and Rain
9:23 PM 75.2 °F - 69.8 °F 83% 30.07 in 10.0 mi South 11.5 mph - 0.03 in Rain Light Rain
9:53 PM 73.9 °F - 70.0 °F 87% 30.09 in 10.0 mi ENE 5.8 mph - 0.03 in   Mostly Cloudy
10:53 PM 73.9 °F - 71.1 °F 91% 30.09 in 10.0 mi Calm Calm - 0.06 in   Mostly Cloudy
11:53 PM 73.9 °F - 71.1 °F 91% 30.05 in 10.0 mi SSE 4.6 mph - N/A   Clear